Jackson, Tennessee, United States (38301)
Lat: 35.61N, Lon: 88.81W
Wx Zone: TNZ052
Local Info
Past Weather Observations for Friday, August 29, 2014

NOTE: This archive is for the closest National Weather Service station to Jackson. Information may differ from the station used for current weather conditions.

Click here for Long-term Archive

Time Weather Temperature Dewpoint Humidity Pressure Winds Precip Visibility
23:53
Partly Cloudy
77°F / 25°C 64°F / 18°C 65% 30.04 in
(1017 mb)
SSE 3.5 mph
(SSE 6 kph)
- 10SM
22:53
Clear
73°F / 23°C 66°F / 19°C 78% 30.04 in
(1017 mb)
Calm - 10SM
21:53
Clear
77°F / 25°C 66°F / 19°C 69% 30.01 in
(1016 mb)
SSE 3.5 mph
(SSE 6 kph)
- 10SM
20:53
Clear
79°F / 26°C 64°F / 18°C 61% 30.01 in
(1016 mb)
Calm - 10SM
19:53
Clear
81°F / 27°C 64°F / 18°C 58% 29.98 in
(1015 mb)
SSE 3.5 mph
(SSE 6 kph)
- 10SM
18:53
Clear
81°F / 27°C 66°F / 19°C 62% 29.98 in
(1015 mb)
SSE 4.6 mph
(SSE 7 kph)
- 10SM
17:53
Clear
84°F / 29°C 66°F / 19°C 55% 29.95 in
(1014 mb)
SSE 4.6 mph
(SSE 7 kph)
- 10SM
16:53
Clear
88°F / 31°C 70°F / 21°C 55% 29.95 in
(1014 mb)
SSE 4.6 mph
(SSE 7 kph)
- 10SM
15:53
Clear
90°F / 32°C 68°F / 20°C 49% 29.95 in
(1014 mb)
SSE 3.5 mph
(SSE 6 kph)
- 10SM
14:53
Clear
90°F / 32°C 64°F / 18°C 43% 29.95 in
(1014 mb)
SSE 8.1 mph
(SSE 13 kph)
- 10SM
13:53
Clear
90°F / 32°C 66°F / 19°C 46% 29.98 in
(1015 mb)
Variable 5.8 mph
(Variable 9 kph)
- 10SM
12:53
Clear
90°F / 32°C 68°F / 20°C 49% 29.98 in
(1015 mb)
SSE 3.5 mph
(SSE 6 kph)
- 10SM
11:53
Clear
88°F / 31°C 70°F / 21°C 55% 30.01 in
(1016 mb)
SSE 5.8 mph
(SSE 9 kph)
- 10SM
10:53
Clear
88°F / 31°C 68°F / 20°C 52% 30.01 in
(1016 mb)
S 5.8 mph
(S 9 kph)
- 10SM
09:53
Clear
84°F / 29°C 66°F / 19°C 55% 30.01 in
(1016 mb)
S 3.5 mph
(S 6 kph)
- 10SM
08:53
Clear
81°F / 27°C 68°F / 20°C 66% 30.01 in
(1016 mb)
S 4.6 mph
(S 7 kph)
- 10SM
07:53
Clear
75°F / 24°C 72°F / 22°C 89% 30.01 in
(1016 mb)
Calm - 10SM
06:53
Clear
75°F / 24°C 70°F / 21°C 83% 30.01 in
(1016 mb)
Calm - 10SM
05:53
Clear
70°F / 21°C 66°F / 19°C 88% 30.01 in
(1016 mb)
SE 5.8 mph
(SE 9 kph)
- 7SM
05:46
Clear
70°F / 21°C 66°F / 19°C 88% 30.01 in
(1016 mb)
Calm - 7SM
05:42
Partly Cloudy
Fog
68°F / 20°C 66°F / 19°C 94% 30.01 in
(1016 mb)
Calm - 1/2SM
05:34
Obscured
Fog
68°F / 20°C 66°F / 19°C 94% 29.98 in
(1015 mb)
Calm - 1/4SM
05:31
Clear
Fog And Mist
70°F / 21°C 66°F / 19°C 88% 29.98 in
(1015 mb)
Calm - 3/4SM
04:53
Clear
Fog And Mist
72°F / 22°C 68°F / 20°C 88% 29.98 in
(1015 mb)
Calm - 5SM
03:53
Clear
73°F / 23°C 70°F / 21°C 89% 29.98 in
(1015 mb)
SE 3.5 mph
(SE 6 kph)
- 10SM
02:53
Clear
73°F / 23°C 72°F / 22°C 94% 29.98 in
(1015 mb)
SSE 4.6 mph
(SSE 7 kph)
- 10SM
01:53
Clear
73°F / 23°C 72°F / 22°C 94% 29.98 in
(1015 mb)
Calm - 8SM
00:53
Clear
73°F / 23°C 72°F / 22°C 94% 29.98 in
(1015 mb)
SE 3.5 mph
(SE 6 kph)
- 7SM
Time Weather Temperature Dewpoint Humidity Pressure Winds Precip Visibility


Weather for websites

WeatherForYou.com, LLC is not responsible for any damages or problems caused by this service. Current weather conditions are obtained from the closest station including government and personal stations which may have varying degrees of accuracy. Weather forecasts are derived from the NOAA NDFD. Like all things, this site belongs to Jesus Christ... He just trusts me to maintain it. If you have any questions or comments email webmaster@weatherforyou.com

Copyright © 2014, WeatherForYou.com LLC. All rights reserved.